VTD703 UWSK-UWSK

Flight info

Callsign VTD703
Flight time 0h 26m
Altitude 1200
Route RA/A012
Aircraft DA40/L-SDF/C

Departure

Time 2026-05-04 03:05
Airport Krasny Kut Airport (UWSK)

Arrival

Time 2026-05-04 03:32
Airport Krasny Kut Airport (UWSK)
Time Latitude Longitude Altitude Speed Heading
2026-05-04 02:48 50.95567 46.94529 162 ft 0 kts 178°
2026-05-04 03:00 50.95565 46.94530 163 ft 2 kts 178°
2026-05-04 03:00 50.95544 46.94511 163 ft 4 kts 245°
2026-05-04 03:00 50.95546 46.94459 163 ft 7 kts 281°
2026-05-04 03:01 50.95566 46.94396 161 ft 6 kts 326°
2026-05-04 03:01 50.95611 46.94358 160 ft 5 kts 357°
2026-05-04 03:01 50.95646 46.94363 160 ft 3 kts 320°
2026-05-04 03:01 50.95654 46.94343 160 ft 0 kts 300°
2026-05-04 03:03 50.95661 46.94317 160 ft 5 kts 294°
2026-05-04 03:04 50.95682 46.94297 161 ft 2 kts 11°
2026-05-04 03:04 50.95683 46.94298 161 ft 0 kts 27°
2026-05-04 03:04 50.95830 46.94424 164 ft 49 kts 27°
2026-05-04 03:04 50.96236 46.94769 252 ft 73 kts 27°
2026-05-04 03:05 50.96677 46.95184 447 ft 74 kts 24°
2026-05-04 03:05 50.97123 46.95567 645 ft 76 kts 24°
2026-05-04 03:05 50.97610 46.95994 794 ft 81 kts 24°
2026-05-04 03:05 50.98098 46.96444 979 ft 83 kts 26°
2026-05-04 03:06 50.98606 46.96971 1152 ft 86 kts 26°
2026-05-04 03:06 50.99133 46.96956 1244 ft 82 kts 317°
2026-05-04 03:06 50.99419 46.96135 1247 ft 89 kts 297°
2026-05-04 03:06 50.99710 46.95260 1255 ft 91 kts 300°
2026-05-04 03:07 51.00019 46.94356 1251 ft 95 kts 300°
2026-05-04 03:07 51.00027 46.93301 1220 ft 108 kts 248°
2026-05-04 03:07 50.99424 46.92523 1152 ft 118 kts 215°
2026-05-04 03:07 50.98724 46.91901 1177 ft 114 kts 211°
2026-05-04 03:08 50.98028 46.91384 1207 ft 111 kts 208°
2026-05-04 03:08 50.97315 46.90883 1214 ft 112 kts 210°
2026-05-04 03:08 50.96601 46.90365 1168 ft 114 kts 210°
2026-05-04 03:08 50.95896 46.89801 1090 ft 112 kts 213°
2026-05-04 03:09 50.95244 46.89198 1061 ft 105 kts 214°
2026-05-04 03:09 50.94625 46.88721 1134 ft 98 kts 189°
2026-05-04 03:09 50.94061 46.89231 1154 ft 99 kts 116°
2026-05-04 03:09 50.93792 46.90211 1103 ft 95 kts 108°
2026-05-04 03:10 50.93512 46.91175 997 ft 98 kts 117°
2026-05-04 03:10 50.93293 46.92145 917 ft 92 kts 81°
2026-05-04 03:10 50.93691 46.92804 796 ft 87 kts
2026-05-04 03:10 50.94238 46.93204 688 ft 87 kts 21°
2026-05-04 03:11 50.94795 46.93583 526 ft 88 kts 22°
2026-05-04 03:11 50.95348 46.94020 336 ft 89 kts 24°
2026-05-04 03:11 50.95897 46.94464 177 ft 82 kts 26°
2026-05-04 03:11 50.96300 46.94783 173 ft 65 kts 30°
2026-05-04 03:12 50.96740 46.95183 322 ft 75 kts 23°
2026-05-04 03:12 50.97198 46.95600 517 ft 76 kts 24°
2026-05-04 03:12 50.97668 46.96015 695 ft 79 kts 22°
2026-05-04 03:12 50.98174 46.96459 859 ft 86 kts 25°
2026-05-04 03:13 50.98718 46.96829 1047 ft 86 kts 354°
2026-05-04 03:13 50.99134 46.96273 1233 ft 82 kts 294°
2026-05-04 03:13 50.99371 46.95384 1216 ft 92 kts 297°
2026-05-04 03:13 50.99657 46.94442 1196 ft 96 kts 297°
2026-05-04 03:14 50.99906 46.93461 1239 ft 96 kts 275°
2026-05-04 03:14 50.99564 46.92561 1265 ft 105 kts 219°
2026-05-04 03:14 50.98882 46.92048 1244 ft 111 kts 212°
2026-05-04 03:14 50.98193 46.91480 1233 ft 112 kts 213°
2026-05-04 03:15 50.97497 46.90891 1192 ft 114 kts 214°
2026-05-04 03:15 50.96819 46.90269 1201 ft 108 kts 217°
2026-05-04 03:15 50.96194 46.89649 1139 ft 105 kts 218°
2026-05-04 03:15 50.95611 46.89046 1146 ft 98 kts 220°
2026-05-04 03:16 50.94979 46.88864 1160 ft 101 kts 160°
2026-05-04 03:16 50.94543 46.89700 1142 ft 99 kts 114°
2026-05-04 03:16 50.94236 46.90654 1041 ft 96 kts 115°
2026-05-04 03:16 50.93936 46.91592 915 ft 95 kts 115°
2026-05-04 03:17 50.93803 46.92567 802 ft 91 kts 69°
2026-05-04 03:17 50.94254 46.93169 667 ft 88 kts 21°
2026-05-04 03:17 50.94808 46.93599 504 ft 89 kts 23°
2026-05-04 03:17 50.95360 46.94033 315 ft 88 kts 25°
2026-05-04 03:18 50.95888 46.94459 173 ft 73 kts 26°
2026-05-04 03:18 50.96270 46.94769 174 ft 68 kts 29°
2026-05-04 03:18 50.96712 46.95177 350 ft 74 kts 25°
2026-05-04 03:18 50.97158 46.95578 549 ft 74 kts 25°
2026-05-04 03:19 50.97610 46.96014 704 ft 80 kts 26°
2026-05-04 03:19 50.98121 46.96466 864 ft 88 kts 24°
2026-05-04 03:19 50.98654 46.96856 1099 ft 83 kts 360°
2026-05-04 03:19 50.99100 46.96363 1257 ft 83 kts 289°
2026-05-04 03:20 50.99348 46.95497 1270 ft 89 kts 298°
2026-05-04 03:20 50.99649 46.94595 1252 ft 94 kts 300°
2026-05-04 03:20 50.99868 46.93665 1324 ft 93 kts 269°
2026-05-04 03:20 50.99454 46.92808 1224 ft 113 kts 212°
2026-05-04 03:21 50.98746 46.92240 1196 ft 115 kts 212°
2026-05-04 03:21 50.98040 46.91659 1181 ft 114 kts 212°
2026-05-04 03:21 50.97327 46.91067 1150 ft 113 kts 212°
2026-05-04 03:21 50.96627 46.90515 1175 ft 110 kts 212°
2026-05-04 03:22 50.96185 46.90164 1177 ft 105 kts 212°
2026-05-04 03:22 50.95530 46.89648 1148 ft 105 kts 211°
2026-05-04 03:22 50.94898 46.89138 1174 ft 97 kts 212°
2026-05-04 03:22 50.94273 46.88804 1182 ft 99 kts 178°
2026-05-04 03:23 50.93732 46.89436 1182 ft 102 kts 114°
2026-05-04 03:23 50.93427 46.90444 1090 ft 100 kts 113°
2026-05-04 03:23 50.93143 46.91439 966 ft 97 kts 103°
2026-05-04 03:23 50.93317 46.92393 827 ft 91 kts 38°
2026-05-04 03:24 50.93868 46.92858 671 ft 88 kts 22°
2026-05-04 03:24 50.94417 46.93276 530 ft 88 kts 23°
2026-05-04 03:24 50.94961 46.93717 367 ft 87 kts 25°
2026-05-04 03:24 50.95485 46.94134 225 ft 83 kts 24°
2026-05-04 03:25 50.95918 46.94486 165 ft 54 kts 24°
2026-05-04 03:25 50.96330 46.94839 233 ft 76 kts 24°
2026-05-04 03:25 50.96810 46.95233 424 ft 79 kts 23°
2026-05-04 03:25 50.97290 46.95635 631 ft 79 kts 23°
2026-05-04 03:26 50.97800 46.96071 783 ft 86 kts 27°
2026-05-04 03:26 50.98319 46.96551 989 ft 88 kts 25°
2026-05-04 03:26 50.98871 46.96847 1198 ft 81 kts 343°
2026-05-04 03:26 50.99251 46.96178 1177 ft 89 kts 297°
2026-05-04 03:27 50.99541 46.95295 1207 ft 90 kts 299°
2026-05-04 03:27 50.99840 46.94423 1249 ft 90 kts 300°
2026-05-04 03:27 50.99909 46.93437 1229 ft 103 kts 250°
2026-05-04 03:27 50.99332 46.92706 1232 ft 109 kts 212°
2026-05-04 03:28 50.98666 46.92140 1277 ft 107 kts 218°
2026-05-04 03:28 50.97993 46.91614 1267 ft 111 kts 210°
2026-05-04 03:28 50.97297 46.91064 1252 ft 114 kts 211°
2026-05-04 03:28 50.96593 46.90495 1250 ft 111 kts 214°
2026-05-04 03:29 50.95942 46.89911 1228 ft 107 kts 215°
2026-05-04 03:29 50.95286 46.89371 1191 ft 104 kts 212°
2026-05-04 03:29 50.94641 46.88867 1142 ft 104 kts 200°
2026-05-04 03:29 50.93963 46.89151 1115 ft 105 kts 135°
2026-05-04 03:30 50.93613 46.90141 1046 ft 100 kts 115°
2026-05-04 03:30 50.93307 46.91123 905 ft 99 kts 114°
2026-05-04 03:30 50.93247 46.92144 759 ft 94 kts 64°
2026-05-04 03:30 50.93727 46.92753 617 ft 88 kts 20°
2026-05-04 03:31 50.94282 46.93175 486 ft 88 kts 24°
2026-05-04 03:31 50.94820 46.93612 356 ft 88 kts 24°
2026-05-04 03:31 50.95364 46.94041 238 ft 86 kts 24°
2026-05-04 03:31 50.95855 46.94434 166 ft 63 kts 24°
2026-05-04 03:32 50.96150 46.94659 172 ft 33 kts 26°
2026-05-04 03:32 50.96309 46.94792 173 ft 25 kts 24°
2026-05-04 03:32 50.96427 46.94932 174 ft 14 kts 76°
2026-05-04 03:32 50.96427 46.94969 174 ft 0 kts 118°
2026-05-04 03:33 50.96414 46.94989 174 ft 5 kts 155°
2026-05-04 03:33 50.96376 46.94974 173 ft 9 kts 214°
2026-05-04 03:33 50.96305 46.94877 171 ft 16 kts 219°
2026-05-04 03:34 50.96203 46.94829 172 ft 18 kts 194°
2026-05-04 03:34 50.96070 46.94738 169 ft 22 kts 207°
2026-05-04 03:34 50.95926 46.94623 168 ft 26 kts 206°
2026-05-04 03:34 50.95757 46.94482 164 ft 26 kts 210°
2026-05-04 03:35 50.95626 46.94367 160 ft 14 kts 195°
2026-05-04 03:35 50.95583 46.94381 161 ft 4 kts 105°
2026-05-04 03:35 50.95589 46.94452 162 ft 5 kts 109°
2026-05-04 03:35 50.95568 46.94466 162 ft 4 kts 178°
2026-05-04 03:36 50.95566 46.94466 162 ft 0 kts 177°